Fairbanks Eiels, AK

6:09 AM AKDT on September 19, 2017 (GMT -0800)
Eielson Air Force Base

Weather History for PAEI - February, 2014

Change the Weather History Date:

Sunday, February 9, 2014

  Actual Average Record
Temperature  
Mean Temperature -26 °F -  
Max Temperature -17 °F 5 °F 42 °F (1986)
Min Temperature -34 °F -11 °F -46 °F (1950)
Degree Days  
Heating Degree Days 90    
Moisture  
Dew Point -28 °F    
Average Humidity 80    
Maximum Humidity 100    
Minimum Humidity 69    
Precipitation  
Precipitation 0.00 in - - ()
Sea Level Pressure  
Sea Level Pressure 30.52 in    
Wind  
Wind Speed 0 mph (ESE)    
Max Wind Speed 5 mph    
Max Gust Speed -    
Visibility 4 miles    
Events Snow    
Averages and records for this station are not official NWS values.
T = Trace of Precipitation, MM = Missing Value Source: NWS Daily Summary

Daily Weather History Graph

Daily Weather History Graph

Search for Another Location

Airport or City:

Trip Planner

Search our weather history database for the weather conditions in past years. The results will help you decide how hot, cold, wet, or windy it might be!

Date:

Astronomy

Feb. 09, 2014 Rise Set
Actual Time 9:05 AM AKST 5:00 PM AKST
Civil Twilight 8:11 AM AKST 5:55 PM AKST
Nautical Twilight 7:13 AM AKST 6:53 PM AKST
Astronomical Twilight 6:17 AM AKST 7:49 PM AKST
Moon 11:59 AM AKST (2/9) 6:07 AM AKST (2/9)
Length of Visible Light 9h 43m
Length of Day
7h 54m
Waxing Gibbous, 78% of the Moon is Illuminated
Feb 9
Waxing Gibbous
Feb 14
Full
Feb 22
Last Quarter
Feb 28
New
Mar 8
First Quarter

Hourly Weather History & Observations

Time (AKST) Temp. Windchill Dew Point Humidity Pressure Visibility Wind Dir Wind Speed Gust Speed Precip Events Conditions
12:13 AM -25.6 °F - -29.2 °F 83% 30.54 in 10.0 mi Calm Calm - N/A   Mostly Cloudy
12:58 AM -27.6 °F - -29.9 °F 89% 30.62 in 10.0 mi Calm Calm - N/A   Overcast
1:28 AM -25.6 °F - -29.2 °F 83% 30.54 in 10.0 mi Calm Calm - N/A   Overcast
1:58 AM -25.6 °F - -29.2 °F 83% 30.62 in 10.0 mi Calm Calm - N/A   Overcast
2:58 AM -22.2 °F - -28.5 °F 72% 30.61 in 10.0 mi Calm Calm - N/A   Overcast
3:43 AM -22.0 °F - -27.4 °F 76% 30.53 in 0.5 mi Calm Calm - N/A   Haze
3:58 AM -20.7 °F - -26.9 °F 73% 30.59 in 0.2 mi Calm Calm - N/A   Haze
4:28 AM -20.2 °F - -27.4 °F 69% 30.52 in 0.5 mi Calm Calm - N/A   Haze
4:43 AM -20.2 °F - -27.4 °F 69% 30.51 in 0.5 mi Calm Calm - N/A   Haze
4:58 AM -20.4 °F - -26.5 °F 73% 30.59 in 0.2 mi Calm Calm - N/A   Haze
5:13 AM -22.0 °F - -27.4 °F 76% 30.51 in 0.2 mi East 1.2 mph - N/A   Unknown
5:28 AM -22.0 °F -35.6 °F -29.2 °F 69% 30.50 in 0.2 mi SSE 4.6 mph - N/A   Haze
5:43 AM -23.8 °F - -29.2 °F 76% 30.50 in 0.5 mi Calm Calm - N/A   Haze
5:58 AM -24.7 °F - -29.9 °F 76% 30.58 in 0.8 mi Calm Calm - 0.00 in Snow Light Snow
6:13 AM -25.6 °F - -29.2 °F 83% 30.50 in 1.2 mi Calm Calm - N/A   Overcast
6:28 AM -25.6 °F - -29.2 °F 83% 30.49 in 1.8 mi Variable 1.2 mph - N/A   Overcast
6:55 AM -25.6 °F - -29.2 °F 83% 30.57 in 0.8 mi South 2.3 mph - N/A   Clear
7:55 AM -27.4 °F - -29.2 °F 91% 30.57 in 0.8 mi Calm Calm - N/A   Clear
8:55 AM -29.2 °F - -29.2 °F 100% 30.56 in 2.0 mi Calm Calm - N/A   Scattered Clouds
9:15 AM - - - N/A% 30.47 in 4.0 mi SE 3.5 mph - N/A   Scattered Clouds
9:55 AM -27.4 °F - -29.2 °F 91% 30.56 in 5.0 mi Calm Calm - N/A   Scattered Clouds
10:55 AM -27.4 °F - -29.2 °F 91% 30.55 in 6.0 mi Calm Calm - N/A   Partly Cloudy
11:13 AM -27.4 °F - -29.2 °F 91% 30.47 in 0.8 mi Calm Calm - N/A   Partly Cloudy
11:55 AM -25.6 °F - -29.2 °F 83% 30.54 in 0.8 mi Calm Calm - N/A   Partly Cloudy
12:55 PM -20.2 °F - -27.4 °F 69% 30.52 in 0.8 mi Calm Calm - N/A   Partly Cloudy
1:55 PM -18.4 °F - -23.8 °F 76% 30.51 in 3.0 mi Calm Calm - N/A   Partly Cloudy
2:58 PM -17.9 °F - -24.0 °F 74% 30.50 in 4.0 mi Calm Calm - N/A   Partly Cloudy
3:58 PM -18.2 °F - -24.0 °F 75% 30.49 in 4.0 mi Calm Calm - N/A   Partly Cloudy
4:58 PM -20.6 °F - -26.9 °F 73% 30.49 in 9.0 mi Calm Calm - N/A   Partly Cloudy
5:58 PM -24.2 °F - -29.9 °F 74% 30.49 in 7.0 mi North 1.2 mph - 0.00 in   Clear
6:58 PM -26.9 °F - -29.9 °F 85% 30.50 in 10.0 mi Calm Calm - N/A   Clear
7:58 PM -27.2 °F - -29.9 °F 87% 30.50 in 7.0 mi Calm Calm - 0.00 in   Clear
8:58 PM -29.2 °F - -31.0 °F 91% 30.49 in 9.0 mi Calm Calm - N/A   Clear
9:58 PM -31.0 °F - - N/A% 30.51 in 6.0 mi Calm Calm - N/A   Clear
10:58 PM -34.6 °F - - N/A% 30.51 in 9.0 mi Calm Calm - N/A   Clear
11:13 PM -32.8 °F - - N/A% 30.42 in 4.0 mi ENE 1.2 mph - N/A   Haze
11:28 PM -34.6 °F - - N/A% 30.42 in 5.0 mi Calm Calm - N/A   Haze
11:43 PM -32.8 °F - - N/A% 30.42 in 5.0 mi Calm Calm - N/A   Haze
11:58 PM -32.8 °F - - N/A% 30.51 in 6.0 mi Calm Calm - N/A   Haze